Regional Weather Roundup
Issued by NWS

Home | Current Version | Previous Version | Text Only | Print | Product List | Glossary On
Versions: 1 2 3 4 5 6 7 8 9 10 11 12 13 14 15 16 17 18 19 20 21 22 23 24 25 26 27 28 29 30 31 32 33 34 35 36 37 38 39 40 41 42 43 44 45 46 47 48 49 50
000
ASUS43 KMKX 230700
RWRWI

WISCONSIN REGIONAL WEATHER ROUNDUP
NATIONAL WEATHER SERVICE MILWAUKEE/SULLIVAN WI
200 AM CDT THU OCT 23 2014

NOTE: "FAIR" INDICATES FEW OR NO CLOUDS BELOW 12,000 FEET WITH NO
SIGNIFICANT WEATHER AND/OR OBSTRUCTIONS TO VISIBILITY.

WIZ001-002-006>008-014>016-023>028-230800-
NORTHWEST WISCONSIN

CITY           SKY/WX    TMP DP  RH WIND       PRES   REMARKS
SUPERIOR ARPT  MOCLDY    53  39  60 S9        29.99F
ASHLAND        CLOUDY    48  45  89 SW7       30.04F
HAYWARD        CLOUDY    48  40  73 S8        30.05F
SIREN          CLOUDY    53  38  57 S8        30.02F
CUMBERLAND     CLOUDY    46  37  71 SE8       30.05F
RICE LAKE      CLOUDY    48  42  79 SE9       30.07F
CHETEK         CLOUDY    47  43  84 E8        30.07F
LADYSMITH      RAIN      50  40  67 S14G23    30.11S
EAU CLAIRE     NOT AVBL
MENOMONIE      CLOUDY    48  43  81 CALM      30.06F
NEW RICHMOND   CLOUDY    52  39  61 S9        30.03F
OSCEOLA        CLOUDY    53  40  62 SE6       30.04F
$$

WIZ003>005-009-010-017-018-230800-
NORTH CENTRAL WISCONSIN

CITY           SKY/WX    TMP DP  RH WIND       PRES   REMARKS
MANITOWISH WTR PTCLDY    44  37  75 S12       30.10S
ARBOR VITAE    MOCLDY    47  38  71 S12G17    30.12R
WOODRUFF       MOCLDY    47  38  71 S12G17    30.12R
RHINELANDER    CLOUDY    43  36  76 S7        30.14F
EAGLE RIVER    MOCLDY    40  35  81 S5        30.12F
LAND O LAKES   MOCLDY    43  37  78 S6        30.12F
PHILLIPS       CLOUDY    47  36  65 S8        30.10F
TOMAHAWK       MOCLDY    41  36  82 CALM      30.14S
MEDFORD        MOCLDY    43  36  76 S8        30.13S
MERRILL        PTCLDY    41  38  89 CALM      30.14F
$$

WIZ029-030-035-036-043>047-230800-
CENTRAL WISCONSIN

CITY           SKY/WX    TMP DP  RH WIND       PRES   REMARKS
WAUSAU         CLOUDY    41  38  89 SE5       30.15F
MOSINEE        PTCLDY    37  37 100 SE7       30.16F WCI  32
MARSHFIELD     MOCLDY    43  36  76 S6        30.14S
STEVENS POINT  PTCLDY    37  35  94 SE3       30.17F
WAUPACA        CLEAR     38  36  94 CALM      30.20F FOG
WAUTOMA        NOT AVBL
WISC RAPIDS    MOCLDY    41  37  86 SE7       30.17F
CAMP DOUGLAS   NOT AVBL
$$

WIZ011>013-019>022-031-037>040-048>050-230800-
NORTHEAST WISCONSIN

CITY           SKY/WX    TMP DP  RH WIND       PRES   REMARKS
ANTIGO         CLOUDY    36  36 100 S9        30.17F FOG     WCI  29
SHAWANO        FOG       37  35  94 CALM      30.21F VSB 1/4
OCONTO         CLEAR     41  41  98 S3        30.21F
STURGEON BAY   CLEAR     39  36  87 S7        30.22F WCI  34
GREEN BAY      CLEAR     38  36  92 S5        30.21F WCI  34
MANITOWOC      NOT AVBL
APPLETON       CLEAR     37  36  93 S6        30.21F WCI  33
CLINTONVILLE   FOG       32  32 100 CALM      30.20F VSB 1/4
OSHKOSH        CLEAR     36  35  96 S3        30.20F
$$

WIZ032>034-041-042-053>061-230800-
SOUTHWEST WISCONSIN

CITY           SKY/WX    TMP DP  RH WIND       PRES   REMARKS
LA CROSSE      CLOUDY    50  44  80 SE13      30.11F
SPARTA         CLOUDY    51  35  53 CALM      30.15R
VIROQUA        CLOUDY    47  36  64 S8        30.13F
BOSCOBEL       PTCLDY    41  36  82 CALM      30.16F
PRAIRIE DU CHI MOCLDY    48  37  64 E6        30.13F
PLATTEVILLE    PTCLDY    42  35  78 CALM      30.17F
$$

WIZ056-057-062-063-064-067-068-230800-
SOUTH CENTRAL WISCONSIN

CITY           SKY/WX    TMP DP  RH WIND       PRES   REMARKS
REEDSBURG      CLEAR     44  35  70 SE3       30.16F
BARABOO/DELLS  CLEAR     42  34  75 SE7       30.16F
LONE ROCK      NOT AVBL
MINERAL POINT  PTCLDY    43  34  70 SE7       30.17F
MADISON        CLEAR     39  35  86 SE6       30.21S WCI  35
MIDDLETON      CLEAR     39  35  86 CALM      30.20S
WATERTOWN      CLEAR     36  36 100 CALM      30.21F
MONROE         CLEAR     37  34  87 S8        30.19F WCI  31
JANESVILLE     CLEAR     37  34  87 SE3       30.21S
$$

WIZ051-052-058>065-066-070>072-230800-
SOUTHEAST WISCONSIN

CITY           SKY/WX    TMP DP  RH WIND       PRES   REMARKS
MILWAUKEE      CLEAR     35  31  85 SE3       30.23F
WAUKESHA       CLEAR     32  32 100 CALM      30.23F
MILWAUKEE/TIMM CLEAR     32  30  93 CALM      30.23F FOG
RACINE         CLEAR     33  30  88 CALM      30.25F
BURLINGTON     FOG       27  27 100 CALM      30.23F VSB 1/2
KENOSHA        CLEAR     32  31  96 CALM      30.23F
FOND DU LAC    CLEAR     36  33  89 S7        30.21F WCI  30
SHEBOYGAN      FOG       29  29 100 CALM      30.23F VSB 1/4
WEST BEND      CLEAR     34  32  93 CALM      30.23S
JUNEAU         CLEAR     36  35  96 SE10      30.22F FOG     WCI  28
$$

LSZ147-162-230800-
LAKE SUPERIOR

STATION/POSITION TIME  TEMP    WIND        PRES    WAVE
                       AIR SEA DIR/SP/G            HT/PER
                 (UTC) (F)     (DEG/KT/KT) (MB)    (FT/S)
W MID LAKE BUOY  0550   50 46  180/ 12/ 14 1018.5F   2/ 3
DEVILS ISLAND    0600   52     170/  7/  9 1017.5F
PORT WING        0600   53     180/  4/  6 1016.6F
SAXON HARBOR     0600   54     170/  5/ 20 1016.9
$$

LMZ867-665-643>646-230800-
LAKE MICHIGAN

STATION/POSITION TIME  TEMP    WIND        PRES    WAVE
                       AIR SEA DIR/SP/G            HT/PER
                 (UTC) (F)     (DEG/KT/KT) (MB)    (FT/S)
CHAMBERS ISLAND  0600   44     150/  5/  9 1023.7F
N MID LAKE BUOY  0550   47 51  180/ 10/ 12 1024.6F   1
NORTHPORT PIER   0600   41     180/  2/  5 1023.7F
SISTER BAY       0628          150/  8/ 10   N/A
ALGOMA LAKESHORE 0641          220/ 21/ 23   N/A
KEWAUNEE LAKESHO 0600   46     200/  7/  9 1022.8F
SHEBOYGAN LAKESH 0600   47 51  190/  9/ 11 1024.6F
PORT WASHINGTON  0640   40     270/  3/  4 1024.4F
ATWATER BUOY     0600   47     200/  8/ 10 1025.2F
MILWAUKEE LAKESH 0600   45     220/  5/  5   N/A
S MID LAKE BUOY  0550   50 54  160/ 12/ 14 1025.2F   1/ 3
KENOSHA   LAKESH 0600   44     200/  3/  4 1024.4F
$$

TC  - TEMPERATURE IN CELSIUS
VSB - VISIBILITY IN STATUTE MILES
WCI - WIND CHILL INDEX
HX  - HEAT INDEX




USA.gov is the U.S. government's official web portal to all federal, state and local government web resources and services.